Weather History for Ephrata, WA

Change the Weather History Date:

Monday, July 23, 2012

  Actual Average Record
Temperature  
Mean Temperature 66 °F 76 °F  
Max Temperature 78 °F 90 °F 107 °F (2006)
Min Temperature 54 °F 62 °F 51 °F (1963)
Degree Days  
Heating Degree Days 0 0  
Month to date heating degree days 3 4  
Since 1 June heating degree days 87 64  
Since 1 July heating degree days 3 4  
Cooling Degree Days 1 11  
Month to date cooling degree days 258 206  
Year to date cooling degree days 352 353  
Since 1 June cooling degree days 323 316  
Growing Degree Days 16 (Base 50)    
Moisture  
Dew Point 38 °F    
Average Humidity 40    
Maximum Humidity 55    
Minimum Humidity 24    
Precipitation  
Precipitation 0.00 in 0.01 in 1.56 in (1992)
Month to date precipitation 0.87 0.30  
Year to date precipitation 4.84 4.37  
Sea Level Pressure  
Sea Level Pressure 30.04 in    
Wind  
Wind Speed 12 mph (WSW)    
Max Wind Speed 23 mph    
Max Gust Speed 26 mph    
Visibility 10 miles    
Events      
T = Trace of Precipitation, MM = Missing Value Source: NWS Daily Summary

Daily Weather History Graph

Daily Weather History Graph

Search for Another Location

Airport:

Trip Planner

Search our weather history database for the weather conditions in past years. The results will help you decide how hot, cold, wet, or windy it might be!

Date:

Astronomy

Jul. 23, 2012 Rise Set
Actual Time 5:26 AM PDT 8:42 PM PDT
Civil Twilight 4:49 AM PDT 9:19 PM PDT
Nautical Twilight 4:00 AM PDT 10:07 PM PDT
Astronomical Twilight 2:58 AM PDT 11:08 PM PDT
Moon 10:48 AM PDT (7/23) 10:31 PM PDT (7/23)
Length of Visible Light 16h 29m
Length of Day
15h 15m
Waxing Crescent, 23% of the Moon is Illuminated
Jul 23
Waxing Crescent
Jul 26
First Quarter
Aug 1
Full
Aug 9
Last Quarter
Aug 17
New

Hourly Weather History & Observations

Time (PDT) Temp. Dew Point Humidity Pressure Visibility Wind Dir Wind Speed Gust Speed Precip Events Conditions
12:53 AM 60.1 °F 37.9 °F 44% 29.94 in 10.0 mi WSW 13.8 mph - N/A   Clear
1:53 AM 55.9 °F 39.0 °F 53% 29.97 in 10.0 mi SW 9.2 mph - N/A   Clear
2:53 AM 57.0 °F 37.9 °F 49% 29.99 in 10.0 mi SW 13.8 mph - N/A   Clear
3:53 AM 55.9 °F 37.9 °F 51% 29.99 in 10.0 mi SW 17.3 mph 24.2 mph N/A   Clear
4:53 AM 57.9 °F 36.0 °F 44% 30.01 in 10.0 mi WSW 16.1 mph 24.2 mph N/A   Clear
5:53 AM 55.0 °F 37.9 °F 53% 30.04 in 10.0 mi SSW 13.8 mph - N/A   Clear
6:53 AM 60.1 °F 36.0 °F 41% 30.07 in 10.0 mi West 12.7 mph - N/A   Clear
7:53 AM 63.0 °F 35.1 °F 35% 30.08 in 10.0 mi West 13.8 mph - N/A   Clear
8:53 AM 64.9 °F 35.1 °F 33% 30.08 in 10.0 mi SSW 12.7 mph - N/A   Clear
9:53 AM 66.0 °F 37.9 °F 36% 30.10 in 10.0 mi SW 12.7 mph - N/A   Clear
10:53 AM 68.0 °F 36.0 °F 31% 30.09 in 10.0 mi SSW 9.2 mph - N/A   Clear
11:53 AM 70.0 °F 37.0 °F 30% 30.09 in 10.0 mi SSW 11.5 mph - N/A   Clear
12:53 PM 73.0 °F 37.9 °F 28% 30.09 in 10.0 mi SW 10.4 mph 17.3 mph N/A   Clear
1:53 PM 73.9 °F 35.1 °F 24% 30.09 in 10.0 mi WSW 8.1 mph 17.3 mph N/A   Clear
2:53 PM 75.9 °F 37.0 °F 24% 30.07 in 10.0 mi SSW 10.4 mph 17.3 mph N/A   Clear
3:53 PM 77.0 °F 37.0 °F 24% 30.06 in 10.0 mi SSW 8.1 mph - N/A   Clear
4:53 PM 75.9 °F 39.0 °F 26% 30.04 in 10.0 mi SSW 6.9 mph 24.2 mph N/A   Clear
5:53 PM 78.1 °F 39.9 °F 25% 30.02 in 10.0 mi SW 10.4 mph 16.1 mph N/A   Clear
6:53 PM 75.9 °F 39.9 °F 27% 30.01 in 10.0 mi WSW 10.4 mph - N/A   Clear
7:53 PM 75.0 °F 42.1 °F 31% 30.01 in 10.0 mi WSW 8.1 mph - N/A   Clear
8:53 PM 71.1 °F 41.0 °F 34% 30.02 in 10.0 mi NNW 12.7 mph - N/A   Clear
9:53 PM 68.0 °F 41.0 °F 37% 30.02 in 10.0 mi NW 13.8 mph - N/A   Clear
10:53 PM 64.9 °F 41.0 °F 42% 30.03 in 10.0 mi North 12.7 mph - N/A   Clear
11:53 PM 64.0 °F 42.1 °F 45% 30.03 in 10.0 mi NW 16.1 mph - N/A   Clear